FW0135 Weather Reports


Display with metric or nautical units.
time (UTC)temp
F
wind
direction
speed
MPH
gust
MPH
rain 1hr
in
rain 24hr
in
rain mn
in
humidity
%
barometer
mb
20240723175140 71 345 0.0 0.0 0.00 0.10 0.10 90 1004.0
20240723174140 71 345 0.0 0.0 0.00 0.10 0.10 91 1003.9
20240723173638 71 345 0.0 0.0 0.00 0.10 0.10 90 1003.9
20240723173136 71 345 0.0 0.0 0.00 0.10 0.10 90 1003.9
20240723172634 71 345 0.0 0.0 0.00 0.10 0.10 90 1003.9
20240723172132 71 345 0.0 0.0 0.00 0.10 0.10 90 1003.8
20240723171127 71 345 0.0 0.0 0.00 0.10 0.10 91 1003.9
20240723170626 71 345 0.0 0.0 0.00 0.10 0.10 90 1003.9
20240723170125 71 345 0.0 0.0 0.00 0.10 0.10 90 1003.8
20240723165624 71 345 0.0 0.0 0.00 0.10 0.10 90 1003.8
20240723164123 71 345 0.0 0.0 0.00 0.10 0.10 90 1003.8
20240723163623 71 345 0.0 0.0 0.00 0.10 0.10 90 1003.7
20240723162120 71 345 0.0 0.0 0.00 0.10 0.10 90 1003.7
20240723161620 71 345 0.0 0.0 0.00 0.10 0.10 89 1003.6
20240723161120 71 345 0.0 0.0 0.00 0.10 0.10 90 1003.6
20240723160619 71 345 0.0 0.0 0.00 0.10 0.10 89 1003.6
20240723155620 71 345 0.0 0.0 0.00 0.10 0.10 90 1003.6
20240723155119 71 345 0.0 0.0 0.00 0.10 0.10 91 1003.7
20240723154620 71 345 0.0 0.0 0.00 0.10 0.10 91 1003.6
20240723154118 71 345 0.0 0.0 0.01 0.10 0.10 91 1003.5
20240723153618 71 345 0.0 0.0 0.01 0.10 0.10 91 1003.5
20240723153119 70 345 0.0 0.0 0.01 0.10 0.10 91 1003.5
20240723152619 70 345 0.0 0.0 0.01 0.10 0.10 90 1003.4
20240723151618 71 345 0.0 0.0 0.01 0.10 0.10 91 1003.5
20240723151120 70 345 0.0 0.0 0.01 0.10 0.10 91 1003.5
20240723150620 70 345 0.0 0.0 0.02 0.10 0.10 92 1003.3
20240723145611 70 345 0.0 0.0 0.02 0.10 0.10 91 1003.5
20240723145106 70 345 0.0 0.0 0.02 0.10 0.10 91 1003.5
20240723144559 70 345 0.0 0.0 0.02 0.10 0.10 91 1003.6
20240723144052 69 345 0.0 0.0 0.01 0.09 0.09 91 1003.6
20240723143546 69 345 0.0 0.0 0.01 0.09 0.09 91 1003.6
20240723143040 70 344 0.0 0.0 0.02 0.09 0.09 91 1003.5
20240723142028 69 344 0.0 0.0 0.02 0.09 0.09 91 1003.5
20240723141016 69 344 0.0 0.0 0.02 0.09 0.09 91 1003.4
20240723140510 69 344 0.0 0.0 0.01 0.08 0.08 91 1003.3
20240723140004 69 344 0.0 0.0 0.01 0.08 0.08 91 1003.3
20240723135458 69 344 0.0 0.0 0.01 0.08 0.08 91 1003.2
20240723134952 69 344 0.0 0.0 0.01 0.08 0.08 91 1003.2
20240723134446 69 344 0.0 0.0 0.01 0.08 0.08 91 1003.2
20240723133940 69 344 0.0 0.0 0.01 0.08 0.08 91 1003.2
20240723133434 69 344 0.0 0.0 0.02 0.08 0.08 91 1003.1
20240723132422 69 344 0.0 0.0 0.01 0.07 0.07 91 1003.0
20240723131916 69 344 0.0 0.0 0.02 0.07 0.07 91 1003.0
20240723130904 69 344 0.0 0.0 0.07 0.07 0.07 91 1002.9
20240723130358 69 344 0.0 0.0 0.07 0.07 0.07 91 1002.8
20240723125852 69 344 0.0 0.0 0.07 0.07 0.07 91 1002.8
20240723125346 70 344 0.0 0.0 0.07 0.07 0.07 91 1002.8
20240723124334 70 344 0.0 0.0 0.07 0.07 0.07 91 1002.9
20240723123828 70 344 0.0 0.0 0.07 0.07 0.07 91 1002.9
20240723123322 70 344 0.0 0.0 0.06 0.06 0.06 91 1002.8
20240723122816 70 344 0.0 0.0 0.06 0.06 0.06 91 1002.7
20240723121258 70 344 0.0 0.0 0.01 0.01 0.01 90 1002.6
20240723120752 70 344 0.0 0.0 0.00 0.00 0.00 90 1002.5
20240723120246 70 344 0.0 0.0 0.00 0.00 0.00 90 1002.4
20240723115740 70 344 0.0 0.0 0.00 0.00 0.00 91 1002.3
20240723115234 70 344 0.0 0.0 0.00 0.00 0.00 91 1002.3
20240723114728 70 344 0.0 0.0 0.00 0.00 0.00 90 1002.2
20240723113715 70 344 0.0 0.0 0.00 0.00 0.00 90 1002.1
20240723113210 70 344 0.0 0.0 0.00 0.00 0.00 90 1002.1
20240723112707 70 344 0.0 0.0 0.00 0.00 0.00 90 1002.0
20240723112158 70 344 0.0 0.0 0.00 0.00 0.00 90 1002.0
20240723111652 70 344 0.0 0.0 0.00 0.00 0.00 90 1001.9
20240723111146 70 344 0.0 0.0 0.00 0.00 0.00 90 1001.9
20240723110640 70 344 0.0 0.0 0.00 0.00 0.00 90 1001.8
20240723110133 70 344 0.0 0.0 0.00 0.00 0.00 90 1001.8
20240723105627 70 344 0.0 0.0 0.00 0.00 0.00 90 1001.8
20240723105122 70 344 0.0 0.0 0.00 0.00 0.00 89 1001.8
20240723104616 70 344 0.0 0.0 0.00 0.00 0.00 89 1001.7
20240723104110 69 344 0.0 0.0 0.00 0.00 0.00 89 1001.7
20240723103058 69 344 0.0 0.0 0.00 0.00 0.00 89 1001.7
20240723102552 69 344 0.0 0.0 0.00 0.00 0.00 88 1001.7
20240723102046 69 344 0.0 0.0 0.00 0.00 0.00 88 1001.6
20240723101034 69 344 0.0 0.0 0.00 0.00 0.00 88 1001.6
20240723100532 69 344 0.0 0.0 0.00 0.00 0.00 88 1001.7
20240723100030 69 344 0.0 0.0 0.00 0.00 0.00 88 1001.7
20240723095529 69 344 0.0 0.0 0.00 0.00 0.00 88 1001.7
20240723095031 69 344 0.0 0.0 0.00 0.00 0.00 88 1001.7
20240723094531 69 344 0.0 0.0 0.00 0.00 0.00 88 1001.7
20240723094030 69 344 0.0 0.0 0.00 0.00 0.00 88 1001.6
20240723093531 69 344 0.0 0.0 0.00 0.00 0.00 88 1001.5
20240723092529 69 344 0.0 0.0 0.00 0.00 0.00 87 1001.5
20240723091525 69 344 0.0 0.0 0.00 0.00 0.00 88 1001.6
20240723090520 69 344 0.0 0.0 0.00 0.00 0.00 87 1001.6
20240723090019 69 344 0.0 0.0 0.00 0.00 0.00 87 1001.6
20240723084518 70 344 0.0 0.0 0.00 0.00 0.00 87 1001.5
20240723084014 70 344 0.0 0.0 0.00 0.00 0.00 87 1001.5
20240723083514 70 344 0.0 0.0 0.00 0.00 0.00 87 1001.4
20240723083013 70 344 0.0 0.0 0.00 0.00 0.00 87 1001.3
20240723081511 70 344 0.0 0.0 0.00 0.00 0.00 87 1001.4
20240723080512 70 344 0.0 0.0 0.00 0.00 0.00 87 1001.3
20240723080013 70 344 0.0 0.0 0.00 0.00 0.00 87 1001.3
20240723075512 70 344 0.0 0.0 0.00 0.00 0.00 87 1001.4
20240723075011 70 344 0.0 0.0 0.00 0.00 0.00 86 1001.4
20240723074511 70 344 0.0 0.0 0.00 0.00 0.00 86 1001.3
20240723074012 70 344 0.0 0.0 0.00 0.00 0.00 86 1001.3
20240723073512 70 344 0.0 0.0 0.00 0.00 0.00 86 1001.3
20240723073011 70 344 0.0 0.0 0.00 0.00 0.00 86 1001.3
20240723072512 70 344 0.0 0.0 0.00 0.00 0.00 86 1001.4
20240723072011 70 344 0.0 0.0 0.00 0.00 0.00 86 1001.4
20240723071512 70 344 0.0 0.0 0.00 0.00 0.00 86 1001.4
20240723070500 71 344 0.0 0.0 0.00 0.00 0.00 86 1001.4
20240723065954 71 344 0.0 0.0 0.00 0.00 0.00 86 1001.4
20240723065448 71 344 0.0 0.0 0.00 0.00 0.00 86 1001.4
20240723064942 71 344 0.0 0.0 0.00 0.00 0.00 86 1001.5
20240723063930 71 344 0.0 0.0 0.00 0.00 0.00 85 1001.6
20240723063424 71 344 0.0 0.0 0.00 0.00 0.00 85 1001.7
20240723062917 71 344 0.0 0.0 0.00 0.00 0.00 85 1001.7
20240723062411 71 344 0.0 0.0 0.00 0.00 0.00 85 1001.6
20240723061907 71 344 0.0 0.0 0.00 0.00 0.00 85 1001.7
20240723061359 71 344 0.0 0.0 0.00 0.00 0.00 85 1001.7
20240723060853 71 344 0.0 0.0 0.00 0.00 0.00 85 1001.6
20240723055842 71 344 0.0 1.0 0.00 0.00 0.00 85 1001.7
20240723054830 71 344 0.0 0.0 0.00 0.00 0.00 85 1001.8
20240723054323 71 344 0.0 0.0 0.00 0.00 0.00 85 1001.8
20240723053818 71 344 0.0 0.0 0.00 0.00 0.00 85 1001.8
20240723053312 72 344 0.0 0.0 0.00 0.00 0.00 85 1001.8
20240723052805 72 344 0.0 0.0 0.00 0.00 0.00 85 1001.8
20240723052300 72 344 0.0 0.0 0.00 0.00 0.00 84 1001.9
20240723051753 72 344 0.0 0.0 0.00 0.00 0.00 85 1001.9
20240723051248 72 344 0.0 0.0 0.00 0.00 0.00 85 1001.9
20240723050742 72 344 0.0 0.0 0.00 0.00 0.00 85 1001.9
20240723045730 72 344 0.0 0.0 0.00 0.00 0.00 84 1002.0
20240723045224 72 344 0.0 0.0 0.00 0.00 0.00 84 1002.0
20240723044718 72 344 0.0 0.0 0.00 0.00 0.00 84 1002.0
20240723044211 72 344 0.0 0.0 0.00 0.00 0.00 84 1002.0
20240723042653 72 344 0.0 2.0 0.00 0.00 0.00 85 1002.1
20240723042147 72 344 0.0 0.0 0.00 0.00 0.00 85 1002.3
20240723041641 72 344 0.0 0.0 0.00 0.00 0.00 85 1002.3
20240723040630 72 344 0.0 0.0 0.00 0.00 0.00 85 1002.3
20240723040124 72 344 0.0 0.0 0.00 0.00 0.00 85 1002.3
20240723035619 72 344 0.0 0.0 0.00 0.00 0.00 84 1002.3
20240723035113 72 344 0.0 0.0 0.00 0.00 0.00 84 1002.3
20240723034607 72 344 0.0 0.0 0.00 0.00 0.00 84 1002.3
20240723034100 72 344 0.0 0.0 0.00 0.00 0.00 84 1002.3
20240723033555 72 344 0.0 0.0 0.00 0.00 0.00 84 1002.4
20240723033049 72 344 0.0 0.0 0.00 0.00 0.00 84 1002.4
20240723032543 72 344 0.0 0.0 0.00 0.00 0.00 84 1002.4
20240723032037 72 344 0.0 0.0 0.00 0.00 0.00 84 1002.5
20240723030013 72 344 0.0 0.0 0.00 0.00 0.00 83 1002.5
20240723025507 72 344 0.0 0.0 0.00 0.00 0.00 83 1002.5
20240723025001 72 344 0.0 0.0 0.00 0.00 0.00 83 1002.6
20240723024454 72 344 0.0 0.0 0.00 0.00 0.00 83 1002.6
20240723023948 72 344 0.0 0.0 0.00 0.00 0.00 83 1002.6
20240723023443 72 344 0.0 0.0 0.00 0.00 0.00 83 1002.6
20240723022937 72 344 0.0 0.0 0.00 0.00 0.00 83 1002.6
20240723022430 72 344 0.0 0.0 0.00 0.00 0.00 82 1002.6
20240723021418 72 344 0.0 0.0 0.00 0.00 0.00 82 1002.6
20240723020913 72 344 0.0 0.0 0.00 0.00 0.00 82 1002.6
20240723020406 72 344 0.0 0.0 0.00 0.00 0.00 82 1002.5
20240723015901 72 344 0.0 0.0 0.00 0.00 0.00 82 1002.5
20240723015355 72 344 0.0 0.0 0.00 0.00 0.00 82 1002.5
20240723014850 72 344 0.0 0.0 0.00 0.00 0.00 81 1002.5
20240723013837 73 344 0.0 0.0 0.00 0.00 0.00 81 1002.5
20240723013330 73 344 0.0 0.0 0.00 0.00 0.00 81 1002.5
20240723012318 73 344 0.0 0.0 0.00 0.00 0.00 81 1002.5
20240723011813 73 344 0.0 0.0 0.00 0.00 0.00 81 1002.4
20240723011307 73 344 0.0 0.0 0.00 0.00 0.00 80 1002.4
20240723010801 73 344 0.0 0.0 0.00 0.00 0.00 80 1002.4
20240723010255 73 344 0.0 0.0 0.00 0.00 0.00 80 1002.3
20240723005749 74 344 0.0 0.0 0.00 0.00 0.00 79 1002.3
20240723005243 74 344 0.0 0.0 0.00 0.00 0.00 79 1002.2
20240723004737 74 344 0.0 0.0 0.00 0.00 0.00 79 1002.2
20240723004231 74 344 0.0 0.0 0.00 0.00 0.00 79 1002.1
20240723003725 74 344 0.0 0.0 0.00 0.00 0.00 79 1002.0
20240723003218 74 344 0.0 0.0 0.00 0.00 0.00 79 1002.0
20240723002713 74 344 0.0 0.0 0.00 0.00 0.00 79 1002.0
20240723002210 75 344 0.0 0.0 0.00 0.00 0.00 78 1002.0
20240723001710 75 344 0.0 0.0 0.00 0.00 0.00 78 1002.0
20240723001209 75 344 0.0 0.0 0.00 0.00 0.00 78 1001.9
20240723000709 75 344 0.0 0.0 0.00 0.00 0.00 78 1002.0
20240722235710 76 344 0.0 0.0 0.00 0.00 0.00 78 1001.9
20240722234205 77 344 0.0 0.0 0.00 0.00 0.00 77 1001.7
20240722233159 77 344 0.0 0.0 0.00 0.00 0.00 77 1001.7
20240722232658 77 344 0.0 0.0 0.00 0.00 0.00 77 1001.7
20240722232158 78 344 0.0 0.0 0.00 0.00 0.00 76 1001.7
20240722231659 78 344 0.0 0.0 0.00 0.00 0.00 76 1001.7
20240722230155 79 344 0.0 0.0 0.00 0.00 0.00 75 1001.7
20240722225654 79 344 0.0 0.0 0.00 0.00 0.00 74 1001.8
20240722224653 79 344 0.0 0.0 0.00 0.00 0.00 74 1001.8
20240722224155 79 344 0.0 0.0 0.00 0.00 0.00 74 1001.8
20240722223654 80 344 0.0 0.0 0.00 0.00 0.00 74 1001.8
20240722223154 80 344 0.0 0.0 0.00 0.00 0.00 74 1001.8
20240722222654 80 344 0.0 0.0 0.00 0.00 0.00 73 1001.8
20240722222154 80 344 0.0 0.0 0.00 0.00 0.00 72 1001.8
20240722221654 81 344 0.0 0.0 0.00 0.00 0.00 72 1001.9
20240722221154 81 344 0.0 0.0 0.00 0.00 0.00 72 1001.9
20240722220654 81 344 0.0 0.0 0.00 0.00 0.00 71 1001.9
20240722220154 82 344 0.0 0.0 0.00 0.00 0.00 69 1001.9
20240722214153 82 344 0.0 0.0 0.00 0.00 0.00 65 1001.8
20240722213653 82 344 0.0 0.0 0.00 0.00 0.00 63 1001.8
20240722213148 82 344 0.0 0.0 0.00 0.00 0.00 65 1001.9
20240722212136 83 344 0.0 0.0 0.00 0.00 0.00 65 1001.9
20240722211629 83 344 0.0 0.0 0.00 0.00 0.00 62 1001.9
20240722211124 83 344 0.0 0.0 0.00 0.00 0.00 65 1001.9
20240722210617 83 344 0.0 0.0 0.00 0.00 0.00 66 1001.9
20240722210112 83 344 0.0 0.0 0.00 0.00 0.00 60 1001.9
20240722205605 84 344 0.0 0.0 0.00 0.00 0.00 60 1001.9
20240722205100 84 344 0.0 1.0 0.00 0.00 0.00 63 1002.0
20240722204553 84 344 0.0 2.0 0.00 0.00 0.00 61 1002.0
20240722204048 84 342 0.0 2.0 0.00 0.00 0.00 55 1002.0
20240722203036 84 342 1.0 2.0 0.00 0.00 0.00 58 1002.0
20240722202529 84 342 1.0 2.0 0.00 0.00 0.00 60 1002.1
20240722202024 83 342 0.0 2.0 0.00 0.00 0.00 56 1002.1
20240722201517 83 342 0.0 2.0 0.00 0.00 0.00 65 1002.1
20240722201012 83 342 0.0 0.0 0.00 0.00 0.00 59 1002.1
20240722200000 83 342 0.0 1.0 0.00 0.00 0.00 60 1002.2
20240722195454 84 342 0.0 2.0 0.00 0.00 0.00 62 1002.2
20240722194948 84 342 0.0 3.0 0.00 0.00 0.00 60 1002.2
20240722194442 84 342 0.0 3.0 0.00 0.00 0.00 57 1002.3
20240722193936 84 10 0.0 0.0 0.00 0.00 0.00 53 1002.2
20240722193429 85 10 0.0 0.0 0.00 0.00 0.00 55 1002.4
20240722192924 85 10 0.0 0.0 0.00 0.00 0.00 53 1002.4
20240722192417 85 10 0.0 0.0 0.00 0.00 0.00 54 1002.4
20240722191912 85 10 0.0 0.0 0.00 0.00 0.00 55 1002.4
20240722191406 85 10 0.0 2.0 0.00 0.00 0.00 52 1002.3
20240722190900 85 10 0.0 2.0 0.00 0.00 0.00 50 1002.3
20240722190354 86 11 1.0 2.0 0.00 0.00 0.00 52 1002.4
20240722185847 85 11 1.0 2.0 0.00 0.00 0.00 50 1002.4
20240722184837 85 43 1.0 2.0 0.00 0.00 0.00 50 1002.6
20240722184330 85 43 1.0 2.0 0.00 0.00 0.00 57 1002.6
20240722183824 85 43 0.0 2.0 0.00 0.00 0.00 54 1002.7
20240722183317 85 43 0.0 2.0 0.00 0.00 0.00 52 1002.7
20240722182306 85 42 0.0 3.0 0.00 0.00 0.00 55 1002.7
20240722181800 85 75 0.0 6.0 0.00 0.00 0.00 57 1002.8
20240722181254 85 76 1.0 6.0 0.00 0.00 0.00 49 1002.8
20240722180241 86 12 0.0 3.0 0.00 0.00 0.00 52 1003.0
20240722175736 86 14 0.0 0.0 0.00 0.00 0.00 55 1003.0